Year,Month,Day,Hour,Minute,Value (Times are PST for temperature in C)
2020,06,28,00,00,11.30
2020,06,28,00,01,11.30
2020,06,28,00,02,11.30
2020,06,28,00,03,11.30
2020,06,28,00,04,11.30
2020,06,28,00,05,11.30
2020,06,28,00,06,11.30
2020,06,28,00,07,11.30
2020,06,28,00,08,11.30
2020,06,28,00,09,11.30
2020,06,28,00,10,11.30
2020,06,28,00,11,11.30
2020,06,28,00,12,11.30
2020,06,28,00,13,11.30
2020,06,28,00,14,11.30
2020,06,28,00,15,11.30
2020,06,28,00,16,11.30
2020,06,28,00,17,11.30
2020,06,28,00,18,11.30
2020,06,28,00,19,11.30
2020,06,28,00,20,11.30
2020,06,28,00,21,11.30
2020,06,28,00,22,11.30
2020,06,28,00,23,11.30
2020,06,28,00,24,11.30
2020,06,28,00,25,11.30
2020,06,28,00,26,11.30
2020,06,28,00,27,11.30
2020,06,28,00,28,11.30
2020,06,28,00,29,11.30
2020,06,28,00,30,11.30
2020,06,28,00,31,11.30
2020,06,28,00,32,11.30
2020,06,28,00,33,11.30
2020,06,28,00,34,11.30
2020,06,28,00,35,11.30
2020,06,28,00,36,11.30
2020,06,28,00,37,11.30
2020,06,28,00,38,11.30
2020,06,28,00,39,11.30
2020,06,28,00,40,11.30
2020,06,28,00,41,11.30
2020,06,28,00,42,11.30
2020,06,28,00,43,11.30
2020,06,28,00,44,11.30
2020,06,28,00,45,11.30
2020,06,28,00,46,11.30
2020,06,28,00,47,11.30
2020,06,28,00,48,11.20
2020,06,28,00,49,11.20
2020,06,28,00,50,11.20
2020,06,28,00,51,11.20
2020,06,28,00,52,11.20
2020,06,28,00,53,11.20
2020,06,28,00,54,11.20
2020,06,28,00,55,11.20
2020,06,28,00,56,11.20
2020,06,28,00,57,11.20
2020,06,28,00,58,11.20
2020,06,28,00,59,11.20
2020,06,28,01,00,11.10
2020,06,28,01,01,11.10
2020,06,28,01,02,11.10
2020,06,28,01,03,11.10
2020,06,28,01,04,11.10
2020,06,28,01,05,11.10
2020,06,28,01,06,11.10
2020,06,28,01,07,11.10
2020,06,28,01,08,11.10
2020,06,28,01,09,11.00
2020,06,28,01,10,11.00
2020,06,28,01,11,11.00
2020,06,28,01,12,11.00
2020,06,28,01,13,11.00
2020,06,28,01,14,11.00
2020,06,28,01,15,11.00
2020,06,28,01,16,10.90
2020,06,28,01,17,10.90
2020,06,28,01,18,10.90
2020,06,28,01,19,10.90
2020,06,28,01,20,10.90
2020,06,28,01,21,10.90
2020,06,28,01,22,10.90
2020,06,28,01,23,10.90
2020,06,28,01,24,10.90
2020,06,28,01,25,10.90
2020,06,28,01,26,10.80
2020,06,28,01,27,10.80
2020,06,28,01,28,10.80
2020,06,28,01,29,10.80
2020,06,28,01,30,10.80
2020,06,28,01,31,10.80
2020,06,28,01,32,10.80
2020,06,28,01,33,10.80
2020,06,28,01,34,10.80
2020,06,28,01,35,10.80
2020,06,28,01,36,10.80
2020,06,28,01,37,10.80
2020,06,28,01,38,10.70
2020,06,28,01,39,10.70
2020,06,28,01,40,10.70
2020,06,28,01,41,10.70
2020,06,28,01,42,10.70
2020,06,28,01,43,10.70
2020,06,28,01,44,10.70
2020,06,28,01,45,10.70
2020,06,28,01,46,10.70
2020,06,28,01,47,10.70
2020,06,28,01,48,10.70
2020,06,28,01,49,10.70
2020,06,28,01,50,10.70
2020,06,28,01,51,10.70
2020,06,28,01,52,10.70
2020,06,28,01,53,10.70
2020,06,28,01,54,10.70
2020,06,28,01,55,10.70
2020,06,28,01,56,10.70
2020,06,28,01,57,10.70
2020,06,28,01,58,10.70
2020,06,28,01,59,10.70
2020,06,28,02,00,10.70
2020,06,28,02,01,10.60
2020,06,28,02,02,10.60
2020,06,28,02,03,10.60
2020,06,28,02,04,10.60
2020,06,28,02,05,10.60
2020,06,28,02,06,10.60
2020,06,28,02,07,10.60
2020,06,28,02,08,10.60
2020,06,28,02,09,10.60
2020,06,28,02,10,10.60
2020,06,28,02,11,10.60
2020,06,28,02,12,10.70
2020,06,28,02,13,10.70
2020,06,28,02,14,10.70
2020,06,28,02,15,10.70
2020,06,28,02,16,10.70
2020,06,28,02,17,10.70
2020,06,28,02,18,10.70
2020,06,28,02,19,10.70
2020,06,28,02,20,10.70
2020,06,28,02,21,10.70
2020,06,28,02,22,10.70
2020,06,28,02,23,10.70
2020,06,28,02,24,10.70
2020,06,28,02,25,10.70
2020,06,28,02,26,10.70
2020,06,28,02,27,10.70
2020,06,28,02,28,10.70
2020,06,28,02,29,10.70
2020,06,28,02,30,10.70
2020,06,28,02,31,10.70
2020,06,28,02,32,10.70
2020,06,28,02,33,10.70
2020,06,28,02,34,10.70
2020,06,28,02,35,10.70
2020,06,28,02,36,10.70
2020,06,28,02,37,10.70
2020,06,28,02,38,10.70
2020,06,28,02,39,10.70
2020,06,28,02,40,10.70
2020,06,28,02,41,10.70
2020,06,28,02,42,10.70
2020,06,28,02,43,10.70
2020,06,28,02,44,10.70
2020,06,28,02,45,10.70
2020,06,28,02,46,10.70
2020,06,28,02,47,10.70
2020,06,28,02,48,10.70
2020,06,28,02,49,10.70
2020,06,28,02,50,10.70
2020,06,28,02,51,10.70
2020,06,28,02,52,10.70
2020,06,28,02,53,10.70
2020,06,28,02,54,10.70
2020,06,28,02,55,10.60
2020,06,28,02,56,10.60
2020,06,28,02,57,10.60
2020,06,28,02,58,10.60
2020,06,28,02,59,10.60
2020,06,28,03,00,10.60
2020,06,28,03,01,10.60
2020,06,28,03,02,10.60
2020,06,28,03,03,10.60
2020,06,28,03,04,10.60
2020,06,28,03,05,10.60
2020,06,28,03,06,10.60
2020,06,28,03,07,10.60
2020,06,28,03,08,10.60
2020,06,28,03,09,10.60
2020,06,28,03,10,10.60
2020,06,28,03,11,10.60
2020,06,28,03,12,10.60
2020,06,28,03,13,10.60
2020,06,28,03,14,10.60
2020,06,28,03,15,10.60
2020,06,28,03,16,10.60
2020,06,28,03,17,10.70
2020,06,28,03,18,10.70
2020,06,28,03,19,10.70
2020,06,28,03,20,10.70
2020,06,28,03,21,10.70
2020,06,28,03,22,10.70
2020,06,28,03,23,10.70
2020,06,28,03,24,10.70
2020,06,28,03,25,10.70
2020,06,28,03,26,10.70
2020,06,28,03,27,10.70
2020,06,28,03,28,10.70
2020,06,28,03,29,10.70
2020,06,28,03,30,10.70
2020,06,28,03,31,10.70
2020,06,28,03,32,10.70
2020,06,28,03,33,10.70
2020,06,28,03,34,10.70
2020,06,28,03,35,10.70
2020,06,28,03,36,10.70
2020,06,28,03,37,10.70
2020,06,28,03,38,10.70
2020,06,28,03,39,10.70
2020,06,28,03,40,10.80
2020,06,28,03,41,10.80
2020,06,28,03,42,10.80
2020,06,28,03,43,10.80
2020,06,28,03,44,10.80
2020,06,28,03,45,10.80
2020,06,28,03,46,10.80
2020,06,28,03,47,10.80
2020,06,28,03,48,10.80
2020,06,28,03,49,10.80
2020,06,28,03,50,10.90
2020,06,28,03,51,10.90
2020,06,28,03,52,10.90
2020,06,28,03,53,10.90
2020,06,28,03,54,10.90
2020,06,28,03,55,10.90
2020,06,28,03,56,10.90
2020,06,28,03,57,10.90
2020,06,28,03,58,10.90
2020,06,28,03,59,10.90
2020,06,28,04,00,11.00
2020,06,28,04,01,11.00
2020,06,28,04,02,11.00
2020,06,28,04,03,11.00
2020,06,28,04,04,11.00
2020,06,28,04,05,11.00
2020,06,28,04,06,11.10
2020,06,28,04,07,11.10
2020,06,28,04,08,11.10
2020,06,28,04,09,11.10
2020,06,28,04,10,11.10
2020,06,28,04,11,11.10
2020,06,28,04,12,11.10
2020,06,28,04,13,11.10
2020,06,28,04,14,11.20
2020,06,28,04,15,11.20
2020,06,28,04,16,11.20
2020,06,28,04,17,11.20
2020,06,28,04,18,11.20
2020,06,28,04,19,11.20
2020,06,28,04,20,11.20
2020,06,28,04,21,11.20
2020,06,28,04,22,11.20
2020,06,28,04,23,11.20
2020,06,28,04,24,11.20
2020,06,28,04,25,11.20
2020,06,28,04,26,11.20
2020,06,28,04,27,11.20
2020,06,28,04,28,11.20
2020,06,28,04,29,11.20
2020,06,28,04,30,11.20
2020,06,28,04,31,11.20
2020,06,28,04,32,11.20
2020,06,28,04,33,11.20
2020,06,28,04,34,11.20
2020,06,28,04,35,11.20
2020,06,28,04,36,11.20
2020,06,28,04,37,11.20
2020,06,28,04,38,11.20
2020,06,28,04,39,11.20
2020,06,28,04,40,11.20
2020,06,28,04,41,11.20
2020,06,28,04,42,11.20
2020,06,28,04,43,11.20
2020,06,28,04,44,11.20
2020,06,28,04,45,11.20
2020,06,28,04,46,11.20
2020,06,28,04,47,11.10
2020,06,28,04,48,11.10
2020,06,28,04,49,11.10
2020,06,28,04,50,11.10
2020,06,28,04,51,11.10
2020,06,28,04,52,11.10
2020,06,28,04,53,11.10
2020,06,28,04,54,11.20
2020,06,28,04,55,11.20
2020,06,28,04,56,11.20
2020,06,28,04,57,11.20
2020,06,28,04,58,11.20
2020,06,28,04,59,11.20
2020,06,28,05,00,11.20
2020,06,28,05,01,11.20
2020,06,28,05,02,11.20
2020,06,28,05,03,11.20
2020,06,28,05,04,11.20
2020,06,28,05,05,11.20
2020,06,28,05,06,11.20
2020,06,28,05,07,11.20
2020,06,28,05,08,11.20
2020,06,28,05,09,11.20
2020,06,28,05,10,11.20
2020,06,28,05,11,11.20
2020,06,28,05,12,11.20
2020,06,28,05,13,11.20
2020,06,28,05,14,11.20
2020,06,28,05,15,11.30
2020,06,28,05,16,11.30
2020,06,28,05,17,11.30
2020,06,28,05,18,11.30
2020,06,28,05,19,11.30
2020,06,28,05,20,11.30
2020,06,28,05,21,11.30
2020,06,28,05,22,11.30
2020,06,28,05,23,11.30
2020,06,28,05,24,11.30
2020,06,28,05,25,11.30
2020,06,28,05,26,11.30
2020,06,28,05,27,11.30
2020,06,28,05,28,11.40
2020,06,28,05,29,11.40
2020,06,28,05,30,11.40
2020,06,28,05,31,11.40
2020,06,28,05,32,11.40
2020,06,28,05,33,11.40
2020,06,28,05,34,11.40
2020,06,28,05,35,11.40
2020,06,28,05,36,11.40
2020,06,28,05,37,11.40
2020,06,28,05,38,11.40
2020,06,28,05,39,11.40
2020,06,28,05,40,11.40
2020,06,28,05,41,11.40
2020,06,28,05,42,11.40
2020,06,28,05,43,11.40
2020,06,28,05,44,11.40
2020,06,28,05,45,11.40
2020,06,28,05,46,11.40
2020,06,28,05,47,11.40
2020,06,28,05,48,11.40
2020,06,28,05,49,11.40
2020,06,28,05,50,11.40
2020,06,28,05,51,11.40
2020,06,28,05,52,11.40
2020,06,28,05,53,11.50
2020,06,28,05,54,11.50
2020,06,28,05,55,11.50
2020,06,28,05,56,11.50
2020,06,28,05,57,11.50
2020,06,28,05,58,11.50
2020,06,28,05,59,11.50
2020,06,28,06,00,11.50
2020,06,28,06,01,11.50
2020,06,28,06,02,11.50
2020,06,28,06,03,11.50
2020,06,28,06,04,11.50
2020,06,28,06,05,11.60
2020,06,28,06,06,11.60
2020,06,28,06,07,11.50
2020,06,28,06,08,11.50
2020,06,28,06,09,11.60
2020,06,28,06,10,11.60
2020,06,28,06,11,11.60
2020,06,28,06,12,11.60
2020,06,28,06,13,11.60
2020,06,28,06,14,11.60
2020,06,28,06,15,11.60
2020,06,28,06,16,11.60
2020,06,28,06,17,11.60
2020,06,28,06,18,11.60
2020,06,28,06,19,11.60
2020,06,28,06,20,11.60
2020,06,28,06,21,11.60
2020,06,28,06,22,11.70
2020,06,28,06,23,11.70
2020,06,28,06,24,11.70
2020,06,28,06,25,11.70
2020,06,28,06,26,11.70
2020,06,28,06,27,11.70
2020,06,28,06,28,11.70
2020,06,28,06,29,11.70
2020,06,28,06,30,11.80
2020,06,28,06,31,11.80
2020,06,28,06,32,11.80
2020,06,28,06,33,11.80
2020,06,28,06,34,11.80
2020,06,28,06,35,11.80
2020,06,28,06,36,11.90
2020,06,28,06,37,11.90
2020,06,28,06,38,11.90
2020,06,28,06,39,11.90
2020,06,28,06,40,11.90
2020,06,28,06,41,12.00
2020,06,28,06,42,12.00
2020,06,28,06,43,12.00
2020,06,28,06,44,12.00
2020,06,28,06,45,12.00
2020,06,28,06,46,12.10
2020,06,28,06,47,12.10
2020,06,28,06,48,12.10
2020,06,28,06,49,12.10
2020,06,28,06,50,12.10
2020,06,28,06,51,12.10
2020,06,28,06,52,12.10
2020,06,28,06,53,12.10
2020,06,28,06,54,12.10
2020,06,28,06,55,12.10
2020,06,28,06,56,12.10
2020,06,28,06,57,12.10
2020,06,28,06,58,12.10
2020,06,28,06,59,12.10
2020,06,28,07,00,12.10
2020,06,28,07,01,12.10
2020,06,28,07,02,12.10
2020,06,28,07,03,12.10
2020,06,28,07,04,12.10
2020,06,28,07,05,12.10
2020,06,28,07,06,12.10
2020,06,28,07,07,12.10
2020,06,28,07,08,12.10
2020,06,28,07,09,12.20
2020,06,28,07,10,12.20
2020,06,28,07,11,12.20
2020,06,28,07,12,12.20
2020,06,28,07,13,12.20
2020,06,28,07,14,12.20
2020,06,28,07,15,12.20
2020,06,28,07,16,12.20
2020,06,28,07,17,12.20
2020,06,28,07,18,12.20
2020,06,28,07,19,12.20
2020,06,28,07,20,12.20
2020,06,28,07,21,12.20
2020,06,28,07,22,12.30
2020,06,28,07,23,12.30
2020,06,28,07,24,12.30
2020,06,28,07,25,12.30
2020,06,28,07,26,12.30
2020,06,28,07,27,12.30
2020,06,28,07,28,12.30
2020,06,28,07,29,12.30
2020,06,28,07,30,12.30
2020,06,28,07,31,12.30
2020,06,28,07,32,12.30
2020,06,28,07,33,12.30
2020,06,28,07,34,12.30
2020,06,28,07,35,12.30
2020,06,28,07,36,12.30
2020,06,28,07,37,12.30
2020,06,28,07,38,12.30
2020,06,28,07,39,12.40
2020,06,28,07,40,12.40
2020,06,28,07,41,12.40
2020,06,28,07,42,12.40
2020,06,28,07,43,12.40
2020,06,28,07,44,12.40
2020,06,28,07,45,12.40
2020,06,28,07,46,12.40
2020,06,28,07,47,12.40
2020,06,28,07,48,12.40
2020,06,28,07,49,12.40
2020,06,28,07,50,12.40
2020,06,28,07,51,12.40
2020,06,28,07,52,12.40
2020,06,28,07,53,12.40
2020,06,28,07,54,12.40
2020,06,28,07,55,12.40
2020,06,28,07,56,12.40
2020,06,28,07,57,12.40
2020,06,28,07,58,12.40
2020,06,28,07,59,12.40
2020,06,28,08,00,12.40
2020,06,28,08,01,12.40
2020,06,28,08,02,12.40
2020,06,28,08,03,12.40
2020,06,28,08,04,12.50
2020,06,28,08,05,12.50
2020,06,28,08,06,12.50
2020,06,28,08,07,12.50
2020,06,28,08,08,12.50
2020,06,28,08,09,12.60
2020,06,28,08,10,12.60
2020,06,28,08,11,12.60
2020,06,28,08,12,12.60
2020,06,28,08,13,12.70
2020,06,28,08,14,12.70
2020,06,28,08,15,12.70
2020,06,28,08,16,12.70
2020,06,28,08,17,12.70
2020,06,28,08,18,12.70
2020,06,28,08,19,12.70
2020,06,28,08,20,12.80
2020,06,28,08,21,12.80
2020,06,28,08,22,12.80
2020,06,28,08,23,12.80
2020,06,28,08,24,12.80
2020,06,28,08,25,12.90
2020,06,28,08,26,12.90
2020,06,28,08,27,12.90
2020,06,28,08,28,13.00
2020,06,28,08,29,13.00
2020,06,28,08,30,13.10
2020,06,28,08,31,13.10
2020,06,28,08,32,13.10
2020,06,28,08,33,13.10
2020,06,28,08,34,13.20
2020,06,28,08,35,13.20
2020,06,28,08,36,13.20
2020,06,28,08,37,13.20
2020,06,28,08,38,13.20
2020,06,28,08,39,13.20
2020,06,28,08,40,13.30
2020,06,28,08,41,13.30
2020,06,28,08,42,13.30
2020,06,28,08,43,13.30
2020,06,28,08,44,13.30
2020,06,28,08,45,13.30
2020,06,28,08,46,13.40
2020,06,28,08,47,13.40
2020,06,28,08,48,13.40
2020,06,28,08,49,13.40
2020,06,28,08,50,13.40
2020,06,28,08,51,13.40
2020,06,28,08,52,13.50
2020,06,28,08,53,13.50
2020,06,28,08,54,13.50
2020,06,28,08,55,13.50
2020,06,28,08,56,13.50
2020,06,28,08,57,13.50
2020,06,28,08,58,13.60
2020,06,28,08,59,13.60
2020,06,28,09,00,13.60
2020,06,28,09,01,13.60
2020,06,28,09,02,13.60
2020,06,28,09,03,13.70
2020,06,28,09,04,13.70
2020,06,28,09,05,13.70
2020,06,28,09,06,13.70
2020,06,28,09,07,13.80
2020,06,28,09,08,13.80
2020,06,28,09,09,13.80
2020,06,28,09,10,13.80
2020,06,28,09,11,13.80
2020,06,28,09,12,13.90
2020,06,28,09,13,13.90
2020,06,28,09,14,13.90
2020,06,28,09,15,13.90
2020,06,28,09,16,14.00
2020,06,28,09,17,14.00
2020,06,28,09,18,14.00
2020,06,28,09,19,14.00
2020,06,28,09,20,14.10
2020,06,28,09,21,14.10
2020,06,28,09,22,14.10
2020,06,28,09,23,14.10
2020,06,28,09,24,14.10
2020,06,28,09,25,14.10
2020,06,28,09,26,14.10
2020,06,28,09,27,14.10
2020,06,28,09,28,14.10
2020,06,28,09,29,14.10
2020,06,28,09,30,14.10
2020,06,28,09,31,14.20
2020,06,28,09,32,14.20
2020,06,28,09,33,14.20
2020,06,28,09,34,14.20
2020,06,28,09,35,14.20
2020,06,28,09,36,14.20
2020,06,28,09,37,14.20
2020,06,28,09,38,14.20
2020,06,28,09,39,14.20
2020,06,28,09,40,14.20
2020,06,28,09,41,14.20
2020,06,28,09,42,14.20
2020,06,28,09,43,14.20
2020,06,28,09,44,14.20
2020,06,28,09,45,14.30
2020,06,28,09,46,14.30
2020,06,28,09,47,14.30
2020,06,28,09,48,14.30
2020,06,28,09,49,14.30
2020,06,28,09,50,14.30
2020,06,28,09,51,14.30
2020,06,28,09,52,14.30
2020,06,28,09,53,14.30
2020,06,28,09,54,14.40
2020,06,28,09,55,14.40
2020,06,28,09,56,14.40
2020,06,28,09,57,14.50
2020,06,28,09,58,14.50
2020,06,28,09,59,14.60
2020,06,28,10,00,14.60
2020,06,28,10,01,14.60
2020,06,28,10,02,14.70
2020,06,28,10,03,14.70
2020,06,28,10,04,14.70
2020,06,28,10,05,14.70
2020,06,28,10,06,14.80
2020,06,28,10,07,14.80
2020,06,28,10,08,14.80
2020,06,28,10,09,14.80
2020,06,28,10,10,14.80
2020,06,28,10,11,14.90
2020,06,28,10,12,14.90
2020,06,28,10,13,14.90
2020,06,28,10,14,14.90
2020,06,28,10,15,14.90
2020,06,28,10,16,14.90
2020,06,28,10,17,14.90
2020,06,28,10,18,14.90
2020,06,28,10,19,15.00
2020,06,28,10,20,15.00
2020,06,28,10,21,15.00
2020,06,28,10,22,15.10
2020,06,28,10,23,15.10
2020,06,28,10,24,15.10
2020,06,28,10,25,15.10
2020,06,28,10,26,15.10
2020,06,28,10,27,15.20
2020,06,28,10,28,15.20
2020,06,28,10,29,15.20
2020,06,28,10,30,15.20
2020,06,28,10,31,15.20
2020,06,28,10,32,15.20
2020,06,28,10,33,15.20
2020,06,28,10,34,15.20
2020,06,28,10,35,15.30
2020,06,28,10,36,15.30
2020,06,28,10,37,15.30
2020,06,28,10,38,15.30
2020,06,28,10,39,15.30
2020,06,28,10,40,15.30
2020,06,28,10,41,15.40
2020,06,28,10,42,15.40
2020,06,28,10,43,15.40
2020,06,28,10,44,15.40
2020,06,28,10,45,15.40
2020,06,28,10,46,15.50
2020,06,28,10,47,15.50
2020,06,28,10,48,15.60
2020,06,28,10,49,15.60
2020,06,28,10,50,15.60
2020,06,28,10,51,15.60
2020,06,28,10,52,15.60
2020,06,28,10,53,15.70
2020,06,28,10,54,15.70
2020,06,28,10,55,15.70
2020,06,28,10,56,15.70
2020,06,28,10,57,15.70
2020,06,28,10,58,15.70
2020,06,28,10,59,15.70
2020,06,28,11,00,15.70
2020,06,28,11,01,15.70
2020,06,28,11,02,15.70
2020,06,28,11,03,15.70
2020,06,28,11,04,15.70
2020,06,28,11,05,15.70
2020,06,28,11,06,15.70
2020,06,28,11,07,15.70
2020,06,28,11,08,15.80
2020,06,28,11,09,15.80
2020,06,28,11,10,15.80
2020,06,28,11,11,15.80
2020,06,28,11,12,15.90
2020,06,28,11,13,15.90
2020,06,28,11,14,15.90
2020,06,28,11,15,15.90
2020,06,28,11,16,16.00
2020,06,28,11,17,16.00
2020,06,28,11,18,16.00
2020,06,28,11,19,16.00
2020,06,28,11,20,16.00
2020,06,28,11,21,16.00
2020,06,28,11,22,16.10
2020,06,28,11,23,16.10
2020,06,28,11,24,16.10
2020,06,28,11,25,16.10
2020,06,28,11,26,16.10
2020,06,28,11,27,16.10
2020,06,28,11,28,16.10
2020,06,28,11,29,16.10
2020,06,28,11,30,16.20
2020,06,28,11,31,16.20
2020,06,28,11,32,16.20
2020,06,28,11,33,16.20
2020,06,28,11,34,16.30
2020,06,28,11,35,16.30
2020,06,28,11,36,16.30
2020,06,28,11,37,16.40
2020,06,28,11,38,16.40
2020,06,28,11,39,16.40
2020,06,28,11,40,16.40
2020,06,28,11,41,16.50
2020,06,28,11,42,16.50
2020,06,28,11,43,16.50
2020,06,28,11,44,16.50
2020,06,28,11,45,16.50
2020,06,28,11,46,16.60
2020,06,28,11,47,16.60
2020,06,28,11,48,16.60
2020,06,28,11,49,16.60
2020,06,28,11,50,16.60
2020,06,28,11,51,16.70
2020,06,28,11,52,16.70
2020,06,28,11,53,16.70
2020,06,28,11,54,16.80
2020,06,28,11,55,16.80
2020,06,28,11,56,16.80
2020,06,28,11,57,16.80
2020,06,28,11,58,16.80
2020,06,28,11,59,16.80
2020,06,28,12,00,16.80
2020,06,28,12,01,16.80
2020,06,28,12,02,16.80
2020,06,28,12,03,16.80
2020,06,28,12,04,16.80
2020,06,28,12,05,16.80
2020,06,28,12,06,16.90
2020,06,28,12,07,16.90
2020,06,28,12,08,16.90
2020,06,28,12,09,16.90
2020,06,28,12,10,16.90
2020,06,28,12,11,16.90
2020,06,28,12,12,16.90
2020,06,28,12,13,16.90
2020,06,28,12,14,16.90
2020,06,28,12,15,16.90
2020,06,28,12,16,16.90
2020,06,28,12,17,16.90
2020,06,28,12,18,16.90
2020,06,28,12,19,16.90
2020,06,28,12,20,16.90
2020,06,28,12,21,16.90
2020,06,28,12,22,16.90
2020,06,28,12,23,16.90
2020,06,28,12,24,16.90
2020,06,28,12,25,16.90
2020,06,28,12,26,17.00
2020,06,28,12,27,17.00
2020,06,28,12,28,17.00
2020,06,28,12,29,17.10
2020,06,28,12,30,17.10
2020,06,28,12,31,17.10
2020,06,28,12,32,17.10
2020,06,28,12,33,17.20
2020,06,28,12,34,17.20
2020,06,28,12,35,17.20
2020,06,28,12,36,17.30
2020,06,28,12,37,17.30
2020,06,28,12,38,17.40
2020,06,28,12,39,17.40
2020,06,28,12,40,17.40
2020,06,28,12,41,17.40
2020,06,28,12,42,17.50
2020,06,28,12,43,17.50
2020,06,28,12,44,17.50
2020,06,28,12,45,17.60
2020,06,28,12,46,17.60
2020,06,28,12,47,17.60
2020,06,28,12,48,17.60
2020,06,28,12,49,17.70
2020,06,28,12,50,17.70
2020,06,28,12,51,17.70
2020,06,28,12,52,17.70
2020,06,28,12,53,17.80
2020,06,28,12,54,17.80
2020,06,28,12,55,17.80
2020,06,28,12,56,17.80
2020,06,28,12,57,17.90
2020,06,28,12,58,17.90
2020,06,28,12,59,17.90
2020,06,28,13,00,17.90
2020,06,28,13,01,18.00
2020,06,28,13,02,18.00
2020,06,28,13,03,18.10
2020,06,28,13,04,18.10
2020,06,28,13,05,18.10
2020,06,28,13,06,18.10
2020,06,28,13,07,18.20
2020,06,28,13,08,18.20
2020,06,28,13,09,18.20
2020,06,28,13,10,18.30
2020,06,28,13,11,18.30
2020,06,28,13,12,18.40
2020,06,28,13,13,18.40
2020,06,28,13,14,18.50
2020,06,28,13,15,18.60
2020,06,28,13,16,18.70
2020,06,28,13,17,18.70
2020,06,28,13,18,18.80
2020,06,28,13,19,18.80
2020,06,28,13,20,18.80
2020,06,28,13,21,18.90
2020,06,28,13,22,18.90
2020,06,28,13,23,18.90
2020,06,28,13,24,19.00
2020,06,28,13,25,19.00
2020,06,28,13,26,19.00
2020,06,28,13,27,19.10
2020,06,28,13,28,19.10
2020,06,28,13,29,19.10
2020,06,28,13,30,19.20
2020,06,28,13,31,19.20
2020,06,28,13,32,19.20
2020,06,28,13,33,19.20
2020,06,28,13,34,19.30
2020,06,28,13,35,19.30
2020,06,28,13,36,19.30
2020,06,28,13,37,19.40
2020,06,28,13,38,19.40
2020,06,28,13,39,19.40
2020,06,28,13,40,19.50
2020,06,28,13,41,19.60
2020,06,28,13,42,19.60
2020,06,28,13,43,19.80
2020,06,28,13,44,19.80
2020,06,28,13,45,19.80
2020,06,28,13,46,19.90
2020,06,28,13,47,19.90
2020,06,28,13,48,19.90
2020,06,28,13,49,19.90
2020,06,28,13,50,19.90
2020,06,28,13,51,20.00
2020,06,28,13,52,20.00
2020,06,28,13,53,20.10
2020,06,28,13,54,20.10
2020,06,28,13,55,20.20
2020,06,28,13,56,20.20
2020,06,28,13,57,20.30
2020,06,28,13,58,20.30
2020,06,28,13,59,20.30
2020,06,28,14,00,20.40
2020,06,28,14,01,20.50
2020,06,28,14,02,20.60
2020,06,28,14,03,20.60
2020,06,28,14,04,20.70
2020,06,28,14,05,20.80
2020,06,28,14,06,20.80
2020,06,28,14,07,20.80
2020,06,28,14,08,20.80
2020,06,28,14,09,20.90
2020,06,28,14,10,20.90
2020,06,28,14,11,21.00
2020,06,28,14,12,21.10
2020,06,28,14,13,21.10
2020,06,28,14,14,21.20
2020,06,28,14,15,21.30
2020,06,28,14,16,21.30
2020,06,28,14,17,21.40
2020,06,28,14,18,21.40
2020,06,28,14,19,21.40
2020,06,28,14,20,21.40
2020,06,28,14,21,21.40
2020,06,28,14,22,21.40
2020,06,28,14,23,21.40
2020,06,28,14,24,21.40
2020,06,28,14,25,21.40
2020,06,28,14,26,21.40
2020,06,28,14,27,21.40
2020,06,28,14,28,21.40
2020,06,28,14,29,21.40
2020,06,28,14,30,21.40
2020,06,28,14,31,21.40
2020,06,28,14,32,21.40
2020,06,28,14,33,21.40
2020,06,28,14,34,21.40
2020,06,28,14,35,21.50
2020,06,28,14,36,21.50
2020,06,28,14,37,21.60
2020,06,28,14,38,21.70
2020,06,28,14,39,21.80
2020,06,28,14,40,21.80
2020,06,28,14,41,21.90
2020,06,28,14,42,22.00
2020,06,28,14,43,22.10
2020,06,28,14,44,22.10
2020,06,28,14,45,22.20
2020,06,28,14,46,22.30
2020,06,28,14,47,22.30
2020,06,28,14,48,22.30
2020,06,28,14,49,22.20
2020,06,28,14,50,22.10
2020,06,28,14,51,22.00
2020,06,28,14,52,22.00
2020,06,28,14,53,21.90
2020,06,28,14,54,21.90
2020,06,28,14,55,21.90
2020,06,28,14,56,22.00
2020,06,28,14,57,22.00
2020,06,28,14,58,22.10
2020,06,28,14,59,22.00
2020,06,28,15,00,22.00
2020,06,28,15,01,22.00
2020,06,28,15,02,22.00
2020,06,28,15,03,22.00
2020,06,28,15,04,22.10
2020,06,28,15,05,22.10
2020,06,28,15,06,22.10
2020,06,28,15,07,22.10
2020,06,28,15,08,22.10
2020,06,28,15,09,22.10
2020,06,28,15,10,22.10
2020,06,28,15,11,22.10
2020,06,28,15,12,22.10
2020,06,28,15,13,22.10
2020,06,28,15,14,22.00
2020,06,28,15,15,22.00
2020,06,28,15,16,21.90
2020,06,28,15,17,21.90
2020,06,28,15,18,22.00
2020,06,28,15,19,22.00
2020,06,28,15,20,21.90
2020,06,28,15,21,21.80
2020,06,28,15,22,21.80
2020,06,28,15,23,21.70
2020,06,28,15,24,21.70
2020,06,28,15,25,21.70
2020,06,28,15,26,21.70
2020,06,28,15,27,21.80
2020,06,28,15,28,21.80
2020,06,28,15,29,21.90
2020,06,28,15,30,21.90
2020,06,28,15,31,22.00
2020,06,28,15,32,22.10
2020,06,28,15,33,22.10
2020,06,28,15,34,22.20
2020,06,28,15,35,22.20
2020,06,28,15,36,22.30
2020,06,28,15,37,22.30
2020,06,28,15,38,22.40
2020,06,28,15,39,22.50
2020,06,28,15,40,22.60
2020,06,28,15,41,22.60
2020,06,28,15,42,22.70
2020,06,28,15,43,22.70
2020,06,28,15,44,22.80
2020,06,28,15,45,22.70
2020,06,28,15,46,22.70
2020,06,28,15,47,22.60
2020,06,28,15,48,22.50
2020,06,28,15,49,22.30
2020,06,28,15,50,22.30
2020,06,28,15,51,22.20
2020,06,28,15,52,22.20
2020,06,28,15,53,22.20
2020,06,28,15,54,22.20
2020,06,28,15,55,22.10
2020,06,28,15,56,22.10
2020,06,28,15,57,22.10
2020,06,28,15,58,22.10
2020,06,28,15,59,22.20
2020,06,28,16,00,22.20
2020,06,28,16,01,22.20
2020,06,28,16,02,22.20
2020,06,28,16,03,22.20
2020,06,28,16,04,22.20
2020,06,28,16,05,22.20
2020,06,28,16,06,22.20
2020,06,28,16,07,22.30
2020,06,28,16,08,22.30
2020,06,28,16,09,22.40
2020,06,28,16,10,22.40
2020,06,28,16,11,22.50
2020,06,28,16,12,22.60
2020,06,28,16,13,22.60
2020,06,28,16,14,22.60
2020,06,28,16,15,22.70
2020,06,28,16,16,22.70
2020,06,28,16,17,22.70
2020,06,28,16,18,22.70
2020,06,28,16,19,22.80
2020,06,28,16,20,22.90
2020,06,28,16,21,22.90
2020,06,28,16,22,23.00
2020,06,28,16,23,23.10
2020,06,28,16,24,23.20
2020,06,28,16,25,23.20
2020,06,28,16,26,23.30
2020,06,28,16,27,23.40
2020,06,28,16,28,23.40
2020,06,28,16,29,23.50
2020,06,28,16,30,23.60
2020,06,28,16,31,23.60
2020,06,28,16,32,23.70
2020,06,28,16,33,23.70
2020,06,28,16,34,23.80
2020,06,28,16,35,23.80
2020,06,28,16,36,23.80
2020,06,28,16,37,23.80
2020,06,28,16,38,23.70
2020,06,28,16,39,23.60
2020,06,28,16,40,23.60
2020,06,28,16,41,23.60
2020,06,28,16,42,23.60
2020,06,28,16,43,23.60
2020,06,28,16,44,23.60
2020,06,28,16,45,23.60
2020,06,28,16,46,23.60
2020,06,28,16,47,23.60
2020,06,28,16,48,23.60
2020,06,28,16,49,23.60
2020,06,28,16,50,23.50
2020,06,28,16,51,23.50
2020,06,28,16,52,23.40
2020,06,28,16,53,23.40
2020,06,28,16,54,23.30
2020,06,28,16,55,23.30
2020,06,28,16,56,23.30
2020,06,28,16,57,23.30
2020,06,28,16,58,23.30
2020,06,28,16,59,23.30
2020,06,28,17,00,23.30
2020,06,28,17,01,23.30
2020,06,28,17,02,23.30
2020,06,28,17,03,23.30
2020,06,28,17,04,23.30
2020,06,28,17,05,23.20
2020,06,28,17,06,23.20
2020,06,28,17,07,23.20
2020,06,28,17,08,23.20
2020,06,28,17,09,23.20
2020,06,28,17,10,23.20
2020,06,28,17,11,23.30
2020,06,28,17,12,23.30
2020,06,28,17,13,23.30
2020,06,28,17,14,23.40
2020,06,28,17,15,23.40
2020,06,28,17,16,23.40
2020,06,28,17,17,23.50
2020,06,28,17,18,23.50
2020,06,28,17,19,23.60